[ hide orbit diagram ]
For accurate long-term ephemerides, please instead use our Horizons system.This orbit viewer was implemented using two-body methods, and hence should not be used for determining accurate long-term trajectories (over several years or decades) or planetary encounter circumstances.
Orbital Elements at Epoch 2459000.5 (2020-May-31.0) TDB
Reference: JPL 23 (heliocentric ecliptic J2000)
Element | Value | Uncertainty (1-sigma) | Units |
e | .06651611776808286 | 3.882e-08 | |
a | 2.802666356164234 | 2.0456e-08 | au |
q | 2.61624387075297 | 1.156e-07 | au |
i | 4.652293297352188 | 4.4894e-06 | deg |
node | 143.1325904036599 | 5.4939e-05 | deg |
peri | 294.8029001936031 | 6.7659e-05 | deg |
M | 11.01648005971623 | 3.7526e-05 | deg |
tp | 2458948.055991503376 (2020-Apr-08.55599150) | 0.00017867 | TDB |
period | 1713.781802939228 4.69 | 1.8763e-05 5.137e-08 | d yr |
n | .2100617472904547 | 2.2998e-09 | deg/d |
Q | 2.989088841575498 | 2.1817e-08 | au |
|
| | Orbit Determination Parameters
Additional Information
|
[ show covariance matrix ]
Physical Parameter Table
Parameter |
Symbol |
Value |
Units |
Sigma |
Reference |
Notes |
absolute magnitude |
H |
15.8 |
|
n/a |
MPO453934 |
|
|
146836 (2002 AR40) Discovered 2002-Jan-09 by LINEAR at Socorro |
Reference: 20070106/Numbers.arc | Last Updated: 2007-01-09 |
|
[ show close-approach data ]
|